星链-36154(STARLINK-36154)

导读 | 豆包AI

STARLINK-36154是美国SpaceX公司星链(Starlink)星座的卫星,于2025年12月7日发射。星链项目旨在构建全球卫星互联网星座,为全球提供高速低延迟宽带服务。该卫星属于星链的组网卫星,延续了星链的技术设计,配备激光通信终端可实现星间高速通信,运行于近地轨道,将补充扩展星链星座的全球覆盖能力与网络服务容量,支撑星链项目不断完善全球卫星互联网服务布局。

基本信息
目录编号:
66939
目录名称:
STARLINK-36154
国际标识:
2025-286Q
轨道中心:
EARTH
卫星名称:
星链-36154
卫星全名:
星链-36154(STARLINK-36154)
卫星状态:
在轨 (已飞行97 天)
发射日期:
2025-12-07 UTC
国别 :
美国 (US)
星等 :
--
轨道信息
数据来源 国际轨道数据
星历时间: 2026-03-13T09:33:13+0800
1天前
查看轨道信息
半长轴: 6853.374km
偏心率: 0.0001791
轨道倾角: 53.161°
近地点辐角 54.446°
升交点赤经 342.767°
平近点角 305.671°
近地点: 474.009km
远地点: 476.465km
周期: 94.106分钟
每日圈数: 15.301929
详细信息
固有亮度:
5
最大亮度:
2.5
卫星平台:
Starlink V1.0
覆盖范围:
全球
运营商:
太空探索技术公司
运营商所在国:
美国
制造商(研发单位):
太空探索技术公司
制造商所在国:
美国
使用方式:
暂无
卫星简介
Starlink 计划是 SpaceX 推出的全球卫星互联网项目,通过发射低轨道卫星,为全球尤其是偏远地区提供高速、低延迟的互联网服务。自 2019 年起,Starlink 已部署数千颗卫星,旨在缩小全球数字鸿沟,推动互联网普及。该项目还为军事、航空等行业提供通信支持,带来广泛经济效益。
2D轨道图
3D轨道图
轨道高度分析图
轨道倾角分析图
轨道综合分析图
查看轨道综合分析图